Weather in Shekshovo

Russia / Ivanovo Oblast     56°31′55″N   40°11′16″E
temp.,
°C
wind,
m/s
gust,
m/s
humid.,
%
clouds,
%
prec.,
mm/h
press.,
hPa
HPBL,
m
3 march, wed
wed300:00−3nnw5129391 0.2 1008534
03:00−7nw5139048 0.2 1010362
06:00−8nw6139370 0.0 1012392
09:00−8nw6129383 0.0 1013469
12:00−3nw6108950 0.0 1012803
15:00−1wnw599276 0.1 1011775
18:00−1w61292100 0.3 1009659
21:00−2w61392100 0.4 1007651
4 march, thu
thu400:00−2wsw61291100 0.1 1004621
03:00−1wsw81494100 0.4 1001733
06:00+1w91698100 0.7 997889
09:000wnw8139589 1.3 996843
12:00−1wnw8128033 0.2 9981000
15:00−2wnw6108646 0.3 999866
18:00−4wnw4888100 0.1 999348
21:00−7nw3692100 0.1 1001106
5 march, fri
fri500:00−10nnw339689 0.0 100235
03:00−12nnw239681 0.0 100321
06:00−13nw22960 0.0 100420
09:00−12wnw22940 0.0 100550
12:00−7wsw239052 0.0 1006229
15:00−5wsw239277 0.1 1007325
18:00−7w369399 0.1 1008130
21:00−11wnw479560 0.1 101097
6 march, sat
sat600:00−10wnw349592 0.1 101290
03:00−14wnw349686 0.1 101470
06:00−15nw489686 0.0 1015168
09:00−17nw369648 0.0 1016182
12:00−13nw369030 0.0 1016401
15:00−10wnw468760 0.1 1015750
18:00−12w349299 0.1 101442
21:00−12wsw369495 0.1 1014110
7 march, sun
sun700:00−14sw479158 0.0 1012131
03:00−13ssw6129140 0.0 1008246
06:00−10ssw81591100 0.2 1003721
09:00−7ssw91591100 0.6 9971026
12:00−4sw91590100 1.0 9931096
15:00−6wnw61185100 2.6 992795
18:00−11sw2378100 0.0 99221
21:00−8sw6129495 0.5 993632